BEIDOU IGSO-7

Last updated on Sept. 27, 2020, 5:41 a.m. UTC

1 43539U 18057A   20270.91261916 -.00000182  00000-0  00000-0 0  9993
2 43539  55.0488 181.3362 0031940 216.6501  49.4482  1.00294703  8205
UTC
Height (km)
Latitude
Longitude
Inclination
Orbital Period
UTC large
Height (km)
Speed (km/s)
/
Latitude / Longitude
Inclination (degrees)
Orbital Period (minutes)
Azimuth
Elevation
Range (km)
Doppler Factor
iOS Compass Heading
iOS Angle

Next 30 passes for location: Hong Kong

Rise time Rise Azimuth (degrees) Set time Set Azimuth (degrees) Duration Max altitude (degrees)

No matching passes for this satellites